Погода в Коськове

Россия / Санкт-Петербург и Ленинградская область     60°01′47″N   33°16′46″E
В апреле 2022 года жителям России запретили посещать сайт meteo.paraplan.net по решению Генеральной прокуратуры. Аудитория сайта уменьшилась в 10 раз. Владельцы сайта не видят смысла в поддержке погодного сервера в таких условиях. Сайт будет закрыт в октябре.
темп.,
°C
ветер,
м/с
пор.,
м/с
влажн.,
%
обл.,
%
осадки,
мм/ч
давл.,
гПа
погр.,
м
25 сентября, вс
вс2500:00+7с41196100 1.8 1007729
03:00+7с41096100 3.7 1006651
06:00+7ссв4997100 3.5 1005646
09:00+7ссв3897100 7.1 1006541
12:00+7св3796100 0.3 1007406
15:00+11в2580100 0.4 1007595
18:00+9всв2589100 0.1 1007147
21:00+8в1194100 0.2 100823
26 сентября, пн
пн2600:00+8вюв1194100 0.0 100822
03:00+8в1194100 0.0 100812
06:00+8юв1194100 0.0 100810
09:00+8ссз0191100 0.0 100867
12:00+10зсз2283100 0.1 1008349
15:00+11сз248094 0.7 1008303
18:00+9св129099 0.7 100967
21:00+8всв1194100 0.8 101025
27 сентября, вт
вт2700:00+8зсз1294100 0.3 101058
03:00+7з2497100 1.4 1010182
06:00+7зюз0199100 1.4 1010129
09:00+7вюв2398100 2.3 1011266
12:00+8юв249694 0.6 1012325
15:00+9юв128770 0.9 1013301
18:00+8всв269446 0.0 1014173
21:00+7вюв310967 0.0 1015280
28 сентября, ср
ср2800:00+6вюв310975 0.0 1015252
03:00+5в310977 0.0 1016253
06:00+5в311975 0.0 1015291
09:00+7вюв41390100 0.0 1015613
12:00+10вюв51277100 0.0 1015920
15:00+11в61170100 0.0 10141193
18:00+9в61270100 0.0 10141075
21:00+8в61276100 0.0 10151169
29 сентября, чт
чт2900:00+6в51373100 0.0 1015861
03:00+5в61373100 0.0 1014815
06:00+4в61377100 0.0 1014764
09:00+3вюв51490100 1.1 1014764
12:00+3вюв61593100 2.5 1015799
15:00+3вюв51494100 5.3 1016762
18:00+4юв51394100 2.4 1017750
21:00+4юв51293100 2.6 1018725